Total_Precipitation_Accumulation
1.16 1.28 1.21 1.01 0.98 0.95 1.15 1.42 1.57 1.42 1.29 1.20 1.21 1.23 1.22 1.26 1.41 1.29 1.35 1.36 1.24 1.13 1.04 0.98 0.96 0.93 0.94 1.03 1.11 1.13 1.16 1.24 1.41 1.60 1.81 2.06 2.33 2.60
1.35 1.35 1.26 1.14 1.18 1.03 1.09 1.31 1.52 1.65 1.54 1.16 1.21 1.22 1.30 1.20 1.39 1.29 1.32 1.37 1.23 1.13 1.04 0.99 0.96 0.94 0.93 0.95 1.01 1.09 1.13 1.12 1.17 1.25 1.34 1.45 1.56 1.73
1.57 1.46 1.42 1.40 1.39 1.26 1.27 1.35 1.43 1.62 1.64 1.35 1.29 1.40 1.48 1.41 1.44 1.40 1.32 1.34 1.26 1.21 1.06 0.99 0.95 0.92 0.94 0.93 0.94 0.95 1.00 1.02 1.04 1.07 1.13 1.17 1.17 1.17
1.95 1.99 1.77 1.67 1.63 1.49 1.46 1.41 1.42 1.55 1.64 1.58 1.48 1.54 1.54 1.52 1.50 1.33 1.13 1.08 1.14 1.25 1.17 1.06 1.00 0.94 0.90 0.90 0.91 0.90 0.91 0.93 0.97 0.97 1.00 1.02 1.04 1.03
1.80 1.99 1.98 2.01 1.82 1.74 1.66 1.57 1.52 1.48 1.60 1.59 1.52 1.65 1.68 1.67 1.55 1.26 1.16 1.19 1.07 1.23 1.22 1.04 0.94 0.90 0.86 0.82 0.80 0.82 0.82 0.84 0.88 0.91 0.91 0.87 0.87 0.87
1.61 1.67 1.77 1.99 1.96 1.91 1.80 1.76 1.75 1.74 1.78 1.74 1.69 1.78 1.95 2.00 1.80 1.47 1.33 1.28 1.18 1.04 1.09 0.99 0.93 0.89 0.84 0.79 0.76 0.73 0.75 0.78 0.81 0.82 0.84 0.83 0.81 0.77
1.63 1.56 1.55 1.73 1.80 1.81 1.66 1.70 1.82 1.89 1.92 1.89 1.86 1.92 2.00 2.10 1.83 1.57 1.39 1.33 1.27 1.12 1.02 0.90 0.87 0.85 0.88 0.91 0.87 0.79 0.74 0.75 0.78 0.80 0.80 0.80 0.80 0.80
1.89 1.80 1.68 1.58 1.57 1.61 1.67 1.71 1.75 1.76 1.81 1.85 1.81 1.85 1.93 1.98 2.03 1.84 1.59 1.38 1.27 1.14 1.11 1.00 0.93 0.90 0.82 0.78 0.88 0.84 0.77 0.74 0.73 0.75 0.77 0.79 0.78 0.74
1.85 1.83 1.64 1.49 1.55 1.50 1.65 1.69 1.62 1.56 1.52 1.56 1.61 1.68 1.99 2.19 2.36 2.11 1.85 1.66 1.45 1.30 1.22 1.06 0.98 0.90 0.81 0.79 0.90 0.78 0.71 0.68 0.66 0.66 0.68 0.69 0.72 0.74
1.48 1.59 1.56 1.46 1.45 1.48 1.42 1.30 1.24 1.26 1.24 1.17 1.22 1.41 1.71 2.14 2.37 2.37 2.30 2.07 1.83 1.50 1.26 1.09 0.91 0.85 0.81 0.76 0.85 0.80 0.73 0.69 0.66 0.63 0.58 0.57 0.61 0.66
1.28 1.29 1.30 1.22 1.28 1.27 1.17 1.06 1.00 1.01 1.03 1.03 1.03 1.17 1.39 1.69 2.03 2.19 2.13 1.93 1.65 1.33 1.12 0.98 0.87 0.85 0.81 0.74 0.75 0.85 0.78 0.73 0.72 0.71 0.70 0.67 0.66 0.72
1.29 1.32 1.41 1.25 1.13 0.99 0.94 0.95 0.87 0.83 0.87 0.86 0.86 0.91 1.02 1.24 1.62 1.73 1.72 1.72 1.53 1.29 1.02 0.95 0.87 0.94 0.90 0.77 0.71 0.71 0.72 0.79 0.80 0.79 0.79 0.80 0.84 0.77
1.05 1.06 1.16 1.18 0.99 0.83 0.81 0.80 0.75 0.72 0.74 0.72 0.72 0.76 0.87 1.01 1.18 1.44 1.52 1.45 1.35 1.14 0.94 0.96 0.89 0.89 0.88 0.76 0.69 0.66 0.63 0.62 0.69 0.77 0.84 0.88 0.89 0.84
1.05 1.07 1.17 1.21 0.98 0.83 0.70 0.65 0.61 0.54 0.58 0.66 0.66 0.67 0.75 0.86 1.05 1.27 1.47 1.47 1.34 1.23 1.16 1.14 1.06 0.99 0.92 0.79 0.68 0.62 0.63 0.63 0.66 0.70 0.74 0.91 0.90 0.90
1.12 1.35 1.35 1.27 1.08 0.86 0.77 0.75 0.62 0.53 0.57 0.63 0.65 0.64 0.68 0.81 1.04 1.30 1.49 1.60 1.52 1.35 1.25 1.17 1.12 1.09 1.09 0.92 0.77 0.70 0.71 0.71 0.68 0.69 0.71 0.75 0.78 0.83
1.14 1.33 1.42 1.41 1.27 1.09 0.99 0.90 0.72 0.67 0.71 0.72 0.75 0.79 0.85 0.96 1.11 1.22 1.37 1.50 1.54 1.40 1.25 1.20 1.17 1.21 1.19 1.05 0.92 0.82 0.74 0.73 0.71 0.72 0.75 0.77 0.76 0.77
1.12 1.35 1.49 1.57 1.55 1.48 1.33 1.20 1.05 0.92 0.84 0.85 0.91 0.91 0.93 0.99 1.07 1.20 1.34 1.39 1.35 1.19 1.12 1.12 1.15 1.19 1.19 1.14 0.96 0.75 0.68 0.64 0.63 0.73 0.85 0.86 0.82 0.80
1.02 1.21 1.43 1.60 1.65 1.72 1.68 1.56 1.35 1.17 1.07 1.05 1.03 1.01 1.02 1.00 1.04 1.17 1.33 1.39 1.31 1.17 1.08 1.03 1.13 1.24 1.24 1.09 0.92 0.75 0.66 0.63 0.63 0.72 0.82 0.85 0.74 0.66
0.90 1.03 1.14 1.29 1.45 1.63 1.69 1.66 1.49 1.34 1.34 1.31 1.20 1.16 1.18 1.16 1.14 1.22 1.35 1.42 1.41 1.29 1.20 1.14 1.16 1.20 1.14 0.91 0.69 0.64 0.66 0.63 0.66 0.68 0.70 0.73 0.67 0.60
0.76 0.85 0.94 1.08 1.25 1.50 1.64 1.69 1.63 1.51 1.49 1.49 1.44 1.37 1.35 1.29 1.22 1.18 1.28 1.38 1.41 1.38 1.31 1.22 1.08 1.04 1.03 0.96 0.85 0.70 0.66 0.75 0.79 0.76 0.72 0.74 0.72 0.73
0.81 0.85 0.89 1.01 1.16 1.37 1.58 1.71 1.72 1.63 1.55 1.59 1.58 1.48 1.43 1.38 1.26 1.18 1.23 1.36 1.43 1.41 1.28 1.12 1.01 1.09 1.27 1.39 1.20 0.87 0.74 0.76 0.88 0.91 0.93 0.99 0.91 0.85
0.92 0.92 0.97 1.07 1.21 1.42 1.60 1.68 1.70 1.66 1.60 1.62 1.60 1.50 1.43 1.40 1.28 1.23 1.24 1.29 1.31 1.32 1.29 1.28 1.39 1.45 1.45 1.41 1.15 0.91 0.85 0.86 0.93 1.01 0.99 0.96 0.92 0.84
0.98 0.95 0.98 1.06 1.23 1.41 1.54 1.64 1.66 1.66 1.63 1.60 1.57 1.49 1.44 1.42 1.39 1.35 1.30 1.31 1.35 1.40 1.52 1.56 1.54 1.52 1.41 1.32 1.24 1.13 1.04 1.05 1.09 1.07 0.92 0.81 0.75 0.73